QPF
0.11 0.08 0.07 0.04 0.03 0.03 0.03 0.02 0.02 0.01 0.01 0.02 0.04 0.04 0.03 0.05 0.05 0.04 0.06 0.08 0.07 0.08 0.09 0.09 0.08 0.09 0.08 0.06 0.05 0.05 0.05 0.04 0.04 0.04 0.03 0.02 0.02 0.02 0.03 0.03 0.03 0.02 0.02
0.05 0.05 0.05 0.04 0.04 0.04 0.07 0.04 0.04 0.04 0.03 0.03 0.04 0.04 0.05 0.06 0.07 0.10 0.10 0.09 0.09 0.09 0.10 0.09 0.08 0.07 0.07 0.08 0.06 0.06 0.06 0.06 0.06 0.05 0.04 0.03 0.03 0.03 0.03 0.03 0.03 0.03 0.03
0.05 0.06 0.05 0.04 0.03 0.04 0.07 0.04 0.03 0.06 0.06 0.04 0.04 0.05 0.05 0.06 0.07 0.11 0.13 0.12 0.12 0.12 0.11 0.09 0.09 0.09 0.10 0.10 0.09 0.08 0.07 0.07 0.06 0.06 0.05 0.05 0.05 0.04 0.03 0.03 0.04 0.04 0.03
0.06 0.06 0.04 0.04 0.03 0.03 0.04 0.04 0.04 0.04 0.04 0.04 0.03 0.03 0.05 0.06 0.07 0.11 0.13 0.12 0.13 0.11 0.10 0.10 0.11 0.11 0.11 0.11 0.12 0.14 0.12 0.10 0.09 0.08 0.08 0.08 0.06 0.05 0.04 0.04 0.03 0.03 0.03
0.10 0.09 0.06 0.05 0.05 0.05 0.05 0.05 0.04 0.04 0.03 0.03 0.03 0.03 0.04 0.06 0.07 0.11 0.15 0.18 0.17 0.15 0.15 0.16 0.13 0.10 0.10 0.11 0.11 0.11 0.11 0.11 0.11 0.11 0.11 0.11 0.09 0.07 0.06 0.05 0.05 0.04 0.03
0.11 0.10 0.08 0.07 0.08 0.06 0.05 0.05 0.04 0.03 0.03 0.03 0.03 0.03 0.05 0.07 0.09 0.09 0.14 0.16 0.13 0.12 0.11 0.10 0.08 0.07 0.07 0.09 0.10 0.10 0.11 0.10 0.10 0.10 0.12 0.12 0.10 0.08 0.07 0.07 0.06 0.05 0.04
0.12 0.11 0.10 0.08 0.09 0.08 0.07 0.07 0.06 0.04 0.03 0.04 0.04 0.04 0.03 0.04 0.06 0.06 0.08 0.08 0.08 0.09 0.08 0.07 0.07 0.07 0.07 0.09 0.09 0.10 0.12 0.13 0.12 0.13 0.13 0.13 0.12 0.11 0.09 0.07 0.06 0.06 0.05
0.15 0.16 0.15 0.12 0.10 0.08 0.07 0.06 0.06 0.05 0.06 0.06 0.07 0.06 0.04 0.03 0.03 0.03 0.04 0.05 0.06 0.07 0.08 0.07 0.07 0.07 0.07 0.08 0.11 0.13 0.13 0.14 0.14 0.14 0.13 0.13 0.11 0.10 0.10 0.11 0.11 0.10 0.09
0.16 0.16 0.14 0.13 0.12 0.10 0.08 0.08 0.08 0.08 0.07 0.07 0.08 0.08 0.06 0.04 0.03 0.02 0.03 0.04 0.04 0.05 0.06 0.06 0.05 0.05 0.06 0.06 0.08 0.10 0.11 0.11 0.13 0.14 0.14 0.14 0.12 0.12 0.13 0.14 0.15 0.14 0.13
0.15 0.14 0.15 0.16 0.15 0.13 0.12 0.12 0.11 0.09 0.08 0.07 0.06 0.06 0.05 0.04 0.03 0.02 0.02 0.03 0.04 0.05 0.06 0.06 0.06 0.06 0.07 0.07 0.07 0.08 0.08 0.07 0.08 0.10 0.12 0.13 0.14 0.14 0.14 0.16 0.17 0.17 0.17
0.16 0.16 0.16 0.16 0.15 0.15 0.14 0.13 0.12 0.11 0.10 0.10 0.08 0.06 0.05 0.04 0.04 0.04 0.04 0.03 0.04 0.05 0.04 0.04 0.04 0.04 0.05 0.06 0.06 0.08 0.08 0.07 0.08 0.09 0.10 0.12 0.13 0.14 0.16 0.18 0.21 0.23 0.23
0.14 0.14 0.14 0.14 0.16 0.18 0.17 0.14 0.10 0.09 0.08 0.07 0.06 0.06 0.05 0.04 0.04 0.05 0.04 0.04 0.04 0.04 0.04 0.04 0.04 0.04 0.04 0.05 0.06 0.08 0.07 0.07 0.07 0.08 0.08 0.08 0.09 0.09 0.10 0.12 0.17 0.20 0.22
0.14 0.14 0.13 0.13 0.14 0.16 0.17 0.15 0.13 0.10 0.08 0.07 0.07 0.07 0.08 0.07 0.06 0.05 0.05 0.05 0.05 0.05 0.05 0.05 0.04 0.03 0.03 0.03 0.04 0.04 0.03 0.03 0.04 0.04 0.04 0.05 0.05 0.06 0.06 0.07 0.09 0.11 0.14
0.11 0.10 0.10 0.10 0.08 0.08 0.07 0.06 0.07 0.08 0.07 0.08 0.08 0.09 0.09 0.08 0.07 0.06 0.06 0.06 0.07 0.06 0.06 0.05 0.03 0.02 0.02 0.02 0.02 0.02 0.01 0.02 0.02 0.03 0.03 0.04 0.04 0.05 0.05 0.06 0.05 0.05 0.06
0.07 0.06 0.05 0.06 0.06 0.05 0.05 0.06 0.06 0.06 0.06 0.07 0.08 0.09 0.08 0.07 0.06 0.05 0.04 0.04 0.04 0.04 0.05 0.04 0.03 0.02 0.02 0.01 0.01 0.01 0.01 0.01 0.01 0.02 0.02 0.03 0.03 0.04 0.05 0.05 0.05 0.04 0.04
0.04 0.03 0.03 0.03 0.03 0.03 0.03 0.04 0.05 0.06 0.07 0.06 0.06 0.05 0.04 0.03 0.03 0.02 0.02 0.02 0.02 0.03 0.03 0.03 0.03 0.02 0.01 0.01 0.01 0.01 0.01 0.01 0.01 0.01 0.01 0.01 0.01 0.02 0.02 0.02 0.02 0.02 0.03
0.03 0.03 0.02 0.02 0.02 0.02 0.02 0.03 0.03 0.03 0.03 0.03 0.03 0.02 0.02 0.02 0.01 0.01 0.02 0.01 0.02 0.02 0.02 0.02 0.02 0.01 0.01 0.01 0.01 0.01 0.00 0.00 0.00 0.00 0.00 0.00 0.00 0.00 0.01 0.01 0.01 0.01 0.01
0.03 0.02 0.02 0.01 0.01 0.01 0.01 0.01 0.01 0.01 0.01 0.01 0.01 0.01 0.01 0.01 0.02 0.01 0.01 0.01 0.01 0.01 0.01 0.01 0.01 0.01 0.01 0.00 0.00 0.00 0.00 0.00 0.00 0.00 0.00 0.00 0.00 0.00 0.01 0.01 0.00 0.00 0.00
0.01 0.01 0.01 0.01 0.01 0.01 0.01 0.01 0.01 0.01 0.01 0.01 0.01 0.01 0.01 0.01 0.01 0.01 0.01 0.01 0.01 0.00 0.00 0.00 0.00 0.00 0.00 0.00 0.00 0.00 0.00 0.00 0.00 0.00 0.00 0.00 0.00 0.00 0.00 0.00 0.00 0.00 0.00
0.00 0.00 0.00 0.00 0.00 0.00 0.00 0.00 0.00 0.00 0.00 0.00 0.00 0.00 0.00 0.01 0.01 0.01 0.01 0.01 0.01 0.00 0.00 0.00 0.00 0.00 0.00 0.00 0.00 0.00 0.00 0.00 0.00 0.00 0.00 0.00 0.00 0.00 0.00 0.00 0.00 0.00 0.00
0.01 0.01 0.01 0.00 0.00 0.00 0.00 0.00 0.00 0.00 0.00 0.00 0.00 0.00 0.00 0.00 0.00 0.00 0.00 0.00 0.00 0.00 0.00 0.00 0.00 0.00 0.00 0.00 0.00 0.00 0.00 0.00 0.00 0.00 0.00 0.00 0.00 0.00 0.00 0.00 0.00 0.00 0.00
0.01 0.00 0.00 0.00 0.00 0.00 0.00 0.00 0.00 0.00 0.00 0.00 0.00 0.00 0.00 0.00 0.00 0.00 0.00 0.00 0.00 0.00 0.00 0.00 0.00 0.00 0.00 0.00 0.00 0.00 0.00 0.00 0.00 0.00 0.00 0.00 0.00 0.00 0.00 0.00 0.00 0.00 0.00
0.00 0.00 0.00 0.00 0.00 0.00 0.00 0.00 0.00 0.00 0.00 0.00 0.00 0.00 0.00 0.00 0.00 0.00 0.00 0.00 0.00 0.00 0.00 0.00 0.00 0.00 0.00 0.00 0.00 0.00 0.00 0.00 0.00 0.00 0.00 0.00 0.00 0.00 0.00 0.00 0.00 0.00 0.00
0.00 0.00 0.00 0.00 0.00 0.00 0.00 0.00 0.00 0.00 0.00 0.00 0.00 0.00 0.00 0.00 0.00 0.00 0.00 0.00 0.00 0.00 0.00 0.00 0.00 0.00 0.00 0.00 0.00 0.00 0.00 0.00 0.00 0.00 0.00 0.00 0.00 0.00 0.00 0.00 0.00 0.00 0.00
0.00 0.00 0.00 0.00 0.00 0.00 0.00 0.00 0.00 0.00 0.00 0.00 0.00 0.00 0.00 0.00 0.00 0.00 0.00 0.00 0.00 0.00 0.00 0.00 0.00 0.00 0.00 0.00 0.00 0.00 0.00 0.00 0.00 0.00 0.00 0.00 0.00 0.00 0.00 0.00 0.00 0.00 0.00
0.00 0.00 0.00 0.00 0.00 0.00 0.00 0.00 0.00 0.00 0.00 0.00 0.00 0.00 0.00 0.00 0.00 0.00 0.00 0.00 0.00 0.00 0.00 0.00 0.00 0.00 0.00 0.00 0.00 0.00 0.00 0.00 0.00 0.00 0.00 0.00 0.00 0.00 0.00 0.00 0.00 0.00 0.00
MSLP
1016.44 1016.56 1016.62 1016.66 1016.72 1016.82 1016.95 1017.12 1017.29 1017.44 1017.55 1017.60 1017.60 1017.56 1017.49 1017.41 1017.35 1017.31 1017.29 1017.31 1017.36 1017.45 1017.56 1017.72 1017.91 1018.12 1018.36 1018.59 1018.80 1018.98 1019.12 1019.22 1019.29 1019.35 1019.43 1019.53 1019.66 1019.82 1019.99 1020.15 1020.29 1020.39 1020.45
1016.67 1016.78 1016.83 1016.85 1016.88 1016.94 1017.04 1017.16 1017.30 1017.42 1017.51 1017.56 1017.56 1017.53 1017.47 1017.41 1017.35 1017.30 1017.27 1017.28 1017.30 1017.36 1017.45 1017.57 1017.72 1017.89 1018.07 1018.24 1018.39 1018.51 1018.60 1018.66 1018.71 1018.77 1018.85 1018.97 1019.12 1019.30 1019.48 1019.66 1019.80 1019.91 1019.99
1016.88 1016.98 1017.03 1017.05 1017.06 1017.11 1017.17 1017.27 1017.37 1017.47 1017.55 1017.59 1017.61 1017.59 1017.56 1017.51 1017.46 1017.42 1017.38 1017.36 1017.36 1017.38 1017.42 1017.48 1017.57 1017.67 1017.77 1017.86 1017.94 1018.00 1018.03 1018.05 1018.08 1018.13 1018.22 1018.35 1018.51 1018.70 1018.90 1019.08 1019.23 1019.34 1019.44
1017.03 1017.14 1017.19 1017.21 1017.23 1017.27 1017.33 1017.40 1017.49 1017.57 1017.63 1017.68 1017.71 1017.72 1017.72 1017.70 1017.68 1017.64 1017.61 1017.57 1017.53 1017.50 1017.49 1017.48 1017.49 1017.51 1017.53 1017.55 1017.55 1017.54 1017.53 1017.52 1017.53 1017.57 1017.66 1017.79 1017.95 1018.13 1018.32 1018.49 1018.63 1018.74 1018.83
1017.13 1017.24 1017.30 1017.34 1017.38 1017.42 1017.47 1017.54 1017.61 1017.68 1017.75 1017.81 1017.86 1017.90 1017.93 1017.96 1017.96 1017.95 1017.92 1017.88 1017.81 1017.74 1017.67 1017.60 1017.54 1017.48 1017.43 1017.37 1017.32 1017.27 1017.22 1017.19 1017.18 1017.22 1017.30 1017.41 1017.56 1017.71 1017.86 1017.99 1018.09 1018.17 1018.24
1017.22 1017.33 1017.41 1017.46 1017.51 1017.56 1017.62 1017.69 1017.75 1017.82 1017.88 1017.95 1018.03 1018.11 1018.18 1018.25 1018.30 1018.32 1018.31 1018.27 1018.19 1018.09 1017.97 1017.85 1017.74 1017.62 1017.52 1017.42 1017.33 1017.25 1017.19 1017.16 1017.15 1017.18 1017.24 1017.33 1017.43 1017.54 1017.63 1017.69 1017.72 1017.73 1017.74
1017.35 1017.46 1017.54 1017.61 1017.68 1017.74 1017.80 1017.86 1017.93 1017.99 1018.06 1018.14 1018.24 1018.35 1018.47 1018.58 1018.68 1018.74 1018.75 1018.72 1018.64 1018.53 1018.39 1018.24 1018.09 1017.95 1017.82 1017.71 1017.62 1017.54 1017.49 1017.46 1017.46 1017.48 1017.53 1017.58 1017.63 1017.66 1017.67 1017.64 1017.57 1017.49 1017.41
1017.59 1017.70 1017.78 1017.86 1017.93 1018.00 1018.06 1018.12 1018.18 1018.24 1018.32 1018.41 1018.53 1018.67 1018.82 1018.98 1019.11 1019.20 1019.25 1019.23 1019.16 1019.05 1018.91 1018.75 1018.59 1018.44 1018.31 1018.21 1018.13 1018.08 1018.05 1018.05 1018.06 1018.09 1018.11 1018.12 1018.11 1018.07 1017.98 1017.84 1017.67 1017.48 1017.30
1017.98 1018.09 1018.17 1018.26 1018.33 1018.40 1018.46 1018.52 1018.57 1018.63 1018.70 1018.80 1018.93 1019.10 1019.27 1019.45 1019.61 1019.73 1019.79 1019.79 1019.73 1019.62 1019.48 1019.32 1019.16 1019.03 1018.91 1018.83 1018.79 1018.77 1018.77 1018.79 1018.82 1018.85 1018.85 1018.83 1018.77 1018.65 1018.48 1018.25 1017.98 1017.69 1017.40
1018.56 1018.66 1018.75 1018.83 1018.90 1018.97 1019.03 1019.08 1019.12 1019.18 1019.25 1019.35 1019.49 1019.65 1019.84 1020.03 1020.20 1020.33 1020.40 1020.40 1020.34 1020.22 1020.08 1019.92 1019.76 1019.63 1019.53 1019.47 1019.44 1019.45 1019.47 1019.51 1019.55 1019.58 1019.58 1019.53 1019.43 1019.27 1019.04 1018.75 1018.41 1018.04 1017.68
1019.28 1019.39 1019.48 1019.56 1019.63 1019.70 1019.75 1019.80 1019.84 1019.88 1019.95 1020.05 1020.18 1020.34 1020.53 1020.71 1020.88 1020.99 1021.05 1021.04 1020.96 1020.83 1020.67 1020.49 1020.32 1020.18 1020.07 1020.01 1019.98 1019.99 1020.02 1020.06 1020.09 1020.11 1020.10 1020.04 1019.93 1019.75 1019.50 1019.19 1018.83 1018.44 1018.04
1020.10 1020.22 1020.32 1020.40 1020.48 1020.55 1020.60 1020.64 1020.67 1020.71 1020.77 1020.86 1020.98 1021.14 1021.31 1021.47 1021.61 1021.71 1021.74 1021.70 1021.59 1021.43 1021.24 1021.03 1020.83 1020.65 1020.51 1020.40 1020.34 1020.31 1020.31 1020.32 1020.34 1020.34 1020.31 1020.25 1020.14 1019.97 1019.74 1019.46 1019.13 1018.77 1018.39
1020.95 1021.09 1021.20 1021.30 1021.39 1021.46 1021.51 1021.54 1021.57 1021.60 1021.66 1021.73 1021.84 1021.98 1022.12 1022.27 1022.38 1022.45 1022.45 1022.37 1022.23 1022.03 1021.79 1021.54 1021.28 1021.04 1020.84 1020.67 1020.54 1020.44 1020.37 1020.32 1020.28 1020.24 1020.19 1020.12 1020.02 1019.88 1019.70 1019.48 1019.22 1018.93 1018.62
1021.78 1021.95 1022.08 1022.20 1022.29 1022.36 1022.41 1022.44 1022.46 1022.49 1022.52 1022.59 1022.68 1022.80 1022.92 1023.04 1023.13 1023.17 1023.14 1023.04 1022.87 1022.63 1022.35 1022.04 1021.72 1021.41 1021.12 1020.86 1020.63 1020.43 1020.27 1020.12 1020.01 1019.90 1019.81 1019.71 1019.62 1019.51 1019.38 1019.24 1019.07 1018.88 1018.67
1022.56 1022.75 1022.91 1023.04 1023.15 1023.22 1023.27 1023.29 1023.29 1023.30 1023.32 1023.37 1023.44 1023.54 1023.65 1023.75 1023.82 1023.84 1023.80 1023.68 1023.49 1023.23 1022.91 1022.56 1022.18 1021.80 1021.43 1021.07 1020.73 1020.42 1020.13 1019.88 1019.65 1019.46 1019.29 1019.16 1019.04 1018.94 1018.86 1018.77 1018.69 1018.60 1018.50
1023.28 1023.49 1023.67 1023.82 1023.93 1024.00 1024.04 1024.05 1024.03 1024.01 1024.01 1024.03 1024.08 1024.16 1024.26 1024.35 1024.41 1024.43 1024.39 1024.27 1024.08 1023.82 1023.49 1023.11 1022.70 1022.26 1021.82 1021.37 1020.93 1020.50 1020.10 1019.72 1019.37 1019.07 1018.81 1018.60 1018.44 1018.32 1018.24 1018.18 1018.16 1018.15 1018.14
1023.95 1024.18 1024.38 1024.53 1024.65 1024.71 1024.73 1024.71 1024.67 1024.62 1024.58 1024.58 1024.60 1024.66 1024.74 1024.82 1024.89 1024.92 1024.89 1024.79 1024.62 1024.37 1024.06 1023.68 1023.26 1022.79 1022.30 1021.79 1021.27 1020.75 1020.24 1019.75 1019.29 1018.87 1018.50 1018.19 1017.95 1017.76 1017.64 1017.57 1017.55 1017.57 1017.62
1024.59 1024.83 1025.04 1025.20 1025.31 1025.36 1025.35 1025.30 1025.22 1025.13 1025.06 1025.02 1025.01 1025.04 1025.10 1025.18 1025.25 1025.29 1025.27 1025.20 1025.06 1024.84 1024.56 1024.21 1023.80 1023.34 1022.83 1022.29 1021.73 1021.15 1020.56 1019.98 1019.42 1018.89 1018.42 1018.00 1017.65 1017.37 1017.16 1017.03 1016.97 1016.97 1017.02
1025.21 1025.45 1025.66 1025.82 1025.91 1025.94 1025.91 1025.83 1025.71 1025.58 1025.46 1025.38 1025.34 1025.34 1025.38 1025.44 1025.50 1025.54 1025.54 1025.49 1025.37 1025.18 1024.93 1024.61 1024.23 1023.80 1023.31 1022.78 1022.20 1021.60 1020.98 1020.34 1019.71 1019.10 1018.53 1018.01 1017.55 1017.16 1016.85 1016.62 1016.48 1016.41 1016.42
1025.79 1026.03 1026.23 1026.38 1026.46 1026.47 1026.41 1026.29 1026.14 1025.98 1025.82 1025.70 1025.62 1025.59 1025.59 1025.62 1025.66 1025.68 1025.68 1025.62 1025.51 1025.35 1025.12 1024.83 1024.49 1024.09 1023.63 1023.13 1022.58 1021.99 1021.36 1020.72 1020.06 1019.41 1018.77 1018.17 1017.61 1017.12 1016.70 1016.37 1016.12 1015.96 1015.89
1026.29 1026.52 1026.72 1026.85 1026.92 1026.91 1026.83 1026.69 1026.52 1026.33 1026.14 1025.99 1025.87 1025.80 1025.77 1025.75 1025.75 1025.74 1025.70 1025.62 1025.49 1025.32 1025.09 1024.82 1024.50 1024.13 1023.71 1023.25 1022.74 1022.19 1021.61 1020.98 1020.34 1019.68 1019.02 1018.38 1017.77 1017.20 1016.69 1016.26 1015.91 1015.64 1015.47
1026.70 1026.91 1027.09 1027.22 1027.27 1027.25 1027.16 1027.02 1026.83 1026.62 1026.42 1026.24 1026.10 1025.99 1025.91 1025.85 1025.78 1025.71 1025.61 1025.48 1025.31 1025.10 1024.85 1024.57 1024.25 1023.90 1023.52 1023.10 1022.64 1022.15 1021.62 1021.05 1020.45 1019.82 1019.19 1018.55 1017.93 1017.33 1016.77 1016.27 1015.83 1015.48 1015.21
1026.98 1027.18 1027.34 1027.45 1027.50 1027.48 1027.39 1027.25 1027.06 1026.86 1026.65 1026.46 1026.30 1026.15 1026.03 1025.90 1025.78 1025.63 1025.46 1025.26 1025.02 1024.75 1024.46 1024.14 1023.81 1023.46 1023.09 1022.70 1022.29 1021.85 1021.38 1020.89 1020.36 1019.80 1019.22 1018.63 1018.04 1017.46 1016.89 1016.36 1015.88 1015.47 1015.12
1027.16 1027.33 1027.48 1027.58 1027.62 1027.60 1027.52 1027.39 1027.22 1027.03 1026.83 1026.64 1026.46 1026.28 1026.11 1025.94 1025.74 1025.52 1025.27 1024.99 1024.68 1024.34 1023.99 1023.63 1023.26 1022.89 1022.53 1022.15 1021.77 1021.38 1020.97 1020.54 1020.09 1019.61 1019.12 1018.61 1018.09 1017.56 1017.03 1016.52 1016.04 1015.59 1015.19
1027.26 1027.41 1027.54 1027.63 1027.67 1027.66 1027.59 1027.47 1027.32 1027.14 1026.96 1026.77 1026.57 1026.38 1026.17 1025.94 1025.69 1025.40 1025.08 1024.72 1024.34 1023.94 1023.53 1023.12 1022.72 1022.33 1021.95 1021.58 1021.21 1020.85 1020.48 1020.11 1019.73 1019.34 1018.93 1018.51 1018.08 1017.64 1017.18 1016.72 1016.26 1015.82 1015.40
1027.34 1027.48 1027.59 1027.67 1027.70 1027.69 1027.63 1027.52 1027.39 1027.22 1027.04 1026.85 1026.65 1026.43 1026.20 1025.93 1025.63 1025.29 1024.91 1024.50 1024.07 1023.63 1023.18 1022.73 1022.30 1021.89 1021.49 1021.11 1020.74 1020.39 1020.04 1019.71 1019.38 1019.05 1018.72 1018.39 1018.05 1017.70 1017.33 1016.94 1016.53 1016.11 1015.70
Thickness
5742 5740 5739 5738 5737 5735 5734 5733 5732 5730 5729 5728 5727 5726 5725 5724 5723 5722 5721 5720 5718 5716 5714 5712 5710 5708 5706 5704 5702 5700 5698 5696 5695 5693 5691 5690 5689 5687 5686 5684 5682 5681 5680
5741 5738 5737 5736 5735 5733 5733 5732 5730 5728 5726 5725 5724 5723 5722 5720 5719 5717 5716 5715 5713 5711 5709 5707 5706 5704 5703 5701 5699 5697 5695 5694 5692 5690 5688 5686 5684 5683 5682 5680 5678 5677 5675
5738 5737 5735 5733 5732 5731 5730 5729 5727 5725 5723 5722 5720 5719 5717 5715 5713 5712 5710 5709 5708 5706 5704 5702 5701 5699 5697 5695 5694 5693 5691 5689 5687 5686 5684 5681 5680 5678 5677 5675 5673 5671 5670
5736 5735 5733 5731 5731 5729 5727 5724 5722 5719 5717 5716 5714 5713 5711 5709 5707 5706 5705 5703 5701 5699 5698 5697 5695 5694 5692 5690 5688 5687 5685 5683 5681 5680 5678 5675 5674 5672 5670 5669 5667 5666 5664
5731 5731 5729 5728 5727 5725 5723 5721 5717 5714 5711 5710 5708 5707 5705 5703 5701 5699 5698 5696 5694 5692 5691 5689 5688 5687 5685 5683 5682 5680 5678 5676 5674 5672 5670 5668 5666 5665 5663 5661 5660 5658 5657
5726 5725 5723 5722 5721 5719 5717 5715 5712 5710 5707 5704 5703 5700 5697 5696 5693 5692 5690 5688 5686 5684 5682 5681 5679 5678 5676 5674 5673 5672 5669 5667 5665 5663 5660 5658 5656 5654 5653 5652 5650 5649 5648
5718 5718 5716 5715 5714 5712 5710 5709 5706 5703 5700 5698 5694 5689 5687 5686 5684 5682 5680 5679 5677 5675 5673 5672 5670 5668 5666 5664 5663 5661 5659 5657 5654 5652 5649 5647 5645 5643 5642 5641 5640 5638 5637
5710 5709 5708 5707 5706 5704 5702 5700 5698 5694 5691 5689 5685 5680 5675 5673 5672 5671 5670 5669 5667 5665 5664 5662 5660 5657 5655 5653 5651 5649 5647 5644 5642 5639 5636 5634 5633 5631 5629 5628 5626 5626 5625
5699 5699 5697 5697 5695 5694 5692 5690 5689 5686 5681 5679 5678 5674 5667 5662 5661 5659 5658 5657 5655 5653 5652 5650 5648 5645 5642 5640 5637 5635 5633 5631 5629 5626 5623 5621 5619 5618 5616 5614 5613 5613 5612
5688 5687 5686 5685 5683 5681 5680 5679 5677 5676 5673 5669 5666 5664 5661 5658 5653 5649 5646 5644 5643 5641 5638 5637 5634 5632 5629 5626 5624 5621 5618 5616 5614 5611 5609 5607 5605 5603 5601 5599 5598 5597 5597
5674 5674 5673 5672 5671 5669 5667 5666 5665 5664 5661 5658 5654 5651 5649 5646 5644 5640 5634 5631 5630 5628 5625 5623 5620 5618 5615 5612 5609 5607 5604 5601 5599 5596 5594 5592 5590 5587 5585 5584 5582 5580 5580
5661 5660 5659 5658 5657 5655 5653 5652 5652 5652 5648 5646 5643 5640 5636 5633 5630 5627 5622 5618 5615 5613 5611 5609 5606 5603 5601 5598 5595 5592 5590 5587 5583 5581 5579 5577 5574 5572 5570 5568 5567 5565 5564
5646 5645 5645 5644 5643 5642 5640 5640 5639 5637 5634 5632 5628 5625 5622 5619 5618 5614 5610 5605 5601 5598 5596 5594 5592 5589 5586 5583 5580 5578 5575 5572 5569 5566 5564 5561 5559 5557 5554 5552 5551 5550 5548
5630 5630 5630 5629 5629 5627 5626 5625 5624 5621 5618 5616 5613 5610 5608 5604 5603 5601 5597 5593 5588 5582 5580 5578 5577 5574 5572 5569 5566 5563 5561 5558 5554 5552 5549 5546 5544 5541 5539 5536 5534 5532 5530
5616 5615 5615 5614 5612 5612 5611 5610 5608 5604 5602 5599 5598 5595 5592 5589 5587 5585 5583 5580 5575 5567 5563 5561 5560 5560 5557 5555 5552 5549 5546 5543 5540 5537 5535 5531 5528 5526 5523 5520 5517 5515 5513
5601 5601 5599 5598 5597 5596 5595 5593 5590 5588 5586 5583 5582 5579 5576 5573 5571 5569 5567 5564 5561 5555 5548 5546 5544 5544 5543 5541 5538 5536 5533 5529 5526 5523 5520 5517 5514 5511 5508 5505 5502 5500 5498
5588 5586 5585 5583 5581 5579 5578 5576 5574 5573 5571 5568 5566 5564 5560 5558 5555 5553 5551 5548 5545 5540 5534 5530 5530 5530 5528 5526 5524 5522 5519 5516 5513 5510 5507 5505 5501 5499 5496 5493 5490 5487 5485
5573 5571 5569 5567 5565 5563 5562 5560 5559 5557 5555 5553 5550 5548 5546 5544 5540 5537 5535 5532 5529 5526 5521 5517 5515 5515 5514 5512 5510 5508 5505 5503 5500 5499 5497 5494 5491 5489 5486 5483 5480 5478 5475
5558 5556 5554 5552 5550 5548 5546 5545 5544 5542 5540 5538 5536 5534 5531 5529 5525 5522 5520 5517 5514 5513 5509 5504 5502 5501 5500 5500 5497 5495 5494 5491 5490 5489 5487 5484 5482 5480 5477 5475 5472 5469 5466
5545 5542 5540 5537 5535 5534 5532 5531 5529 5528 5526 5525 5523 5521 5518 5516 5512 5510 5507 5504 5502 5499 5497 5493 5491 5489 5488 5488 5485 5482 5481 5480 5479 5479 5477 5475 5473 5471 5469 5467 5464 5461 5459
5532 5529 5527 5524 5523 5521 5519 5518 5516 5515 5513 5512 5511 5509 5507 5504 5502 5499 5497 5493 5491 5488 5485 5483 5480 5478 5477 5475 5473 5471 5469 5468 5469 5469 5467 5467 5466 5464 5462 5459 5457 5455 5452
5519 5517 5514 5512 5510 5509 5507 5507 5506 5504 5502 5500 5498 5497 5495 5493 5491 5489 5488 5486 5484 5480 5476 5474 5471 5468 5468 5467 5465 5463 5460 5458 5458 5461 5458 5458 5458 5455 5455 5453 5451 5449 5447
5508 5505 5503 5502 5499 5498 5497 5497 5497 5494 5492 5490 5488 5486 5485 5483 5480 5479 5478 5478 5477 5475 5473 5468 5464 5463 5462 5462 5459 5457 5455 5452 5451 5453 5451 5450 5451 5449 5450 5448 5447 5445 5443
5498 5496 5494 5492 5491 5489 5488 5488 5487 5485 5483 5482 5480 5478 5475 5473 5472 5470 5469 5469 5469 5469 5467 5465 5462 5461 5460 5459 5456 5454 5451 5449 5449 5451 5449 5444 5445 5444 5446 5445 5443 5441 5439
5490 5488 5486 5484 5482 5480 5479 5478 5478 5476 5474 5473 5472 5470 5468 5466 5465 5463 5462 5461 5461 5462 5464 5462 5460 5460 5459 5458 5456 5452 5448 5445 5444 5446 5446 5442 5441 5440 5440 5441 5441 5439 5436
5482 5480 5478 5476 5474 5472 5471 5470 5469 5467 5465 5464 5463 5463 5463 5461 5460 5458 5456 5454 5454 5455 5456 5457 5458 5458 5458 5457 5456 5452 5449 5444 5441 5441 5444 5441 5439 5437 5436 5438 5438 5436 5434